Погода в Гюльшехире

Турция     38°44′25″N   34°36′58″E
темп.,
°C
ветер,
м/с
пор.,
м/с
влажн.,
%
обл.,
%
осадки,
мм/ч
давл.,
гПа
погр.,
м
31 июля, сб
сб3100:00+18ссв12630 0.0 101012
03:00+16сз22710 0.0 101116
06:00+14сз12730 0.0 101112
09:00+22св47430 0.0 1011879
12:00+28ссв67270 0.0 10081733
15:00+32ссв66160 0.0 10062624
18:00+31ссв76160 0.0 10062659
21:00+23св512280 0.0 1009249
1 августа, вс
вс100:00+19в12440 0.0 101026
03:00+16зсз11510 0.0 101011
06:00+15ссз11540 0.0 101211
09:00+22ссв24330 0.0 1012662
12:00+28ссв45200 0.0 10101817
15:00+32с45140 0.0 10072486
18:00+31ссв66130 0.0 10062681
21:00+23св48260 0.0 1009136
2 августа, пн
пн200:00+19в24550 0.0 101072
03:00+16сз22650 0.0 101112
06:00+14сз11760 0.0 101311
09:00+22ссв35490 0.0 1012816
12:00+28ссв56260 0.0 10101735
15:00+32ссв56180 0.0 10072507
18:00+31ссв77190 0.0 10072510
21:00+24ссв510330 0.0 1009207
3 августа, вт
вт300:00+19з01610 0.0 101112
03:00+17ссз22700 0.0 101211
06:00+15ссз11800 0.0 101311
09:00+23ссв24470 0.0 1012659
12:00+30ссв45240 0.0 10101642
15:00+34ссв45160 0.0 10082374
18:00+34ссв76150 0.0 10072637
21:00+26св410260 0.0 1010150
4 августа, ср
ср400:00+21в01500 0.0 101212
03:00+19сз22550 0.0 101311
06:00+17ссз11640 0.0 101411
09:00+25с23370 0.0 1014582
12:00+32ссв45180 0.0 10121718
15:00+35с55130 0.0 10092659
18:00+34ссв66140 0.0 10093076
21:00+27св714270 0.0 1011311